Regional Weather Roundup
Issued by NWS

Home | Current Version | Previous Version | Graphics & Text | Print | Product List | Glossary On
Versions: 1 2 3 4 5 6 7 8 9 10 11 12 13 14 15 16 17 18 19 20 21 22 23 24 25 26 27 28 29 30 31 32 33 34 35 36 37 38 39 40 41 42 43 44 45 46 47 48 49 50
000
ASUS45 KTFX 280419
RWRMT
MONTANA HOURLY WEATHER ROUNDUP
NATIONAL WEATHER SERVICE GREAT FALLS MT
1019 PM MDT FRI MAR 27 2015

NOTE: "FAIR" INDICATES FEW OR NO CLOUDS BELOW 12000 FEET WITH NO
SIGNIFICANT WEATHER AND/OR OBSTRUCTIONS TO VISIBILITY.

* THESE STATIONS ARE NOT UNDER NWS QUALITY CONTROL. THEY DO NOT
   REPORT WEATHER SUCH AS PRECIPITATION OR FOG.

MTZ001>007-043-280500-
WEST OF THE DIVIDE
CITY           SKY/WX    TMP DP  RH WIND       PRES   REMARKS
KALISPELL      CLEAR     46  43  89 VRB3      29.89S
MISSOULA       CLEAR     54  41  62 CALM      29.94S
BUTTE          CLEAR     46  32  58 S7        30.06F
MULLAN PASS    CLEAR     50  36  59 SW6       30.02F
* ESSEX        N/A       44  37  76 N/A        N/A
* EUREKA APT   PTCLDY    59  39  48 E6        29.88F
* HAMILTON APT CLEAR     55  37  51 S5        29.96F VSB 2
* LIBBY APT    CLEAR     52  43  72 CALM      29.89S
* LINCOLN      N/A       53  34  49 SW3        N/A
* LOOKOUT PASS N/A       49  39  69 N/A        N/A
* POLSON       N/A       56  39  53 N/A        N/A
* SEELEY LAKE  N/A       44  36  74 NE1        N/A
* THOMP F APT  CLEAR     51  29  43 N3G8       N/A
* YAAK HILL    N/A       55  44  67 SE1        N/A
$$

MTZ008-052>055-280500-
SOUTHWEST MONTANA
CITY           SKY/WX    TMP DP  RH WIND       PRES   REMARKS
BOZEMAN        CLEAR     54  32  43 E3        30.01S
DILLON         CLEAR     48  28  46 SE8       30.05R
* W YELLOWSTON CLEAR     40  31  70 N/A        N/A
* THREE FORKS  CLEAR     55  36  49 N/A        N/A
* TWIN BRIDGES CLEAR     55  27  34 NE6        N/A
* BOULDER HILL N/A       56  26  32 S4         N/A
* HOMESTAKE PS N/A       44  29  56 SE1        N/A
* MONIDA PASS  N/A       50  30  46 S12        N/A
* RAYNOLDS PAS N/A       43  25  49 SE13       N/A
* WHITEHALL    N/A       56  29  36 W6         N/A
* WISE RIVER   N/A       48  31  52 SE3G9      N/A
$$

MTZ009>010-012-014-046-048-049-054-280500-
EAST SLOPES AND CENTRAL MONTANA
CITY           SKY/WX    TMP DP  RH WIND       PRES   REMARKS
CUT BANK       CLOUDY    54  37  53 SW13      29.87F
GREAT FALLS    MOCLDY    52  34  50 S9        29.91F
HELENA         MOCLDY    61  34  36 SW6       29.97S
MALMSTROM AFB  PTCLDY    52  34  50 S10       29.91S
* CONRAD       CLOUDY    55  34  45 S6         N/A
* DEARBORN     N/A       61  36  39 S1         N/A
* EAST GLACIER N/A       54  38  55 W10        N/A
* MONARCH      N/A       51  23  33 S9         N/A
* PENDROY      N/A       58  29  33 SW4G9      N/A
* ROGERS PASS  N/A       54  32  43 E6G11      N/A
* SAINT MARY   N/A       52  37  57 S4G9       N/A
* WHITE SULPH  N/A       49  31  50 E4         N/A
$$

MTZ011-013-016-021-035-040-045-047-050-051-280500-
NORTH CENTRAL MONTANA
CITY           SKY/WX    TMP DP  RH WIND       PRES   REMARKS
HAVRE          PTCLDY    50  34  54 S8        29.84F
LEWISTOWN      CLEAR     48  30  50 SW13      29.96S
* N BAR RANCH  CLEAR     50  27  41 W5        29.99S
* CHINOOK      PTCLDY    48  36  63 CALM      29.85S
* FORT BENTON  CLEAR     54  30  40 CALM      29.89S
* MALTA APT    MOCLDY    50  36  59 N/A        N/A
* CHESTER      N/A       54  34  47 SE3        N/A
* DENTON       N/A       47  26  44 W6         N/A
* GEYSER       N/A       48  29  48 SW11       N/A
* JUDITH GAP   N/A       54  27  35 NE9        N/A
* LOMA         N/A       56  29  36 SW3        N/A
$$

MTZ017>020-022>027-061-062-280500-
NORTHEAST MONTANA
CITY           SKY/WX    TMP DP  RH WIND       PRES   REMARKS
GLASGOW        MOCLDY    54  36  51 SW3       29.86R
GLENDIVE       PTCLDY    50  36  59 NE5       29.90F
JORDAN         MOCLDY    43  36  76 W3        29.89S
SIDNEY         CLEAR     46  34  63 CALM      29.91R
WOLF POINT     MOCLDY    46  37  71 E9        29.88R
* BEAVER HILL  N/A       47  35  63 SE11       N/A
* CIRCLE       N/A       47  37  68 N/A        N/A
* LINDSAY DVD  N/A       50  35  57 W2         N/A
* NAVAJO       N/A       43  38  83 E7         N/A
* PLENTYWOOD A CLEAR     43  37  79 E7        29.91R
* POPLAR APT   PTCLDY    50  39  66 NE5       29.89R
* SACO         N/A       50  35  57 S8         N/A
$$

MTZ028>042-056>058-280500-
SOUTHCENTRAL AND SOUTHEAST MONTANA
CITY           SKY/WX    TMP DP  RH WIND       PRES   REMARKS
BAKER          MOCLDY    45  36  71 CALM      29.93R
BILLINGS       PTCLDY    55  28  35 W6        29.95R
LIVINGSTON     MOCLDY    63  32  31 W16G24    30.01R
MILES CITY     MOCLDY    57  34  42 S3        29.90S
* BIG TIMBER A PTCLDY    57  32  39 SW8       30.00R
* FORSYTH APT  CLEAR     52  30  43 SE5       29.91S
* LAUREL APT   PTCLDY    55  30  39 SW6        N/A
* ROUNDUP APT  CLEAR     61  27  27 N/A        N/A
* ALZADA       N/A       51  34  52 NW4        N/A
* HYSHAM       N/A       59  25  27 N/A        N/A
* LAME DEER    N/A       58  27  31 E4         N/A
* REED POINT   N/A       52  32  47 N/A        N/A
* ROSCOE HILL  N/A       59  17  19 SW8G16     N/A
$$

REGIONAL REPORTS...DAKOTAS
CITY           SKY/WX    TMP DP  RH WIND       PRES   REMARKS
WILLISTON      PTCLDY    46  37  71 NE8       29.92R
DICKINSON      CLEAR     37  30  76 S6        29.91R WCI  32
BEACH          CLEAR     37  36  96 S6        29.92S WCI  32
CROSBY         CLEAR     36  36 100 E7        29.94R WCI  30
TIOGA          CLEAR     34  34 100 E6        29.95R WCI  29
WATFORD CITY   CLEAR     37  36  96 CALM      29.91R
BISMARCK       CLOUDY    34  30  85 NE8       29.95R WCI  27
GRAND FORKS    CLOUDY    30  23  75 S8        30.11R WCI  22
FARGO          CLOUDY    30  21  69 S8        30.12R WCI  22
BUFFALO SD     PTCLDY    48  34  59 E8        29.88R
RAPID CITY     PTCLDY    43  32  65 NW9       29.95R
$$

REGIONAL REPORTS...WYOMING/IDAHO/WASHINGTON
CITY           SKY/WX    TMP DP  RH WIND       PRES   REMARKS
GILLETTE       CLEAR     43  34  71 S9        29.99S
SHERIDAN       CLEAR     57  28  33 W14       29.97S
CODY           CLEAR     61  28  29 W6G21     30.06F
YELLOWSTONE LA PTCLDY    30  27  89 CALM      30.25F
SALMON         CLEAR     46  34  63 CALM      30.01R
MULLAN PASS    CLEAR     50  36  59 SW6       30.02S
SAND POINT     PTCLDY    48  48 100 CALM      29.88F
SPOKANE        FAIR      57  48  72 S7        29.88F
$$

REGIONAL REPORTS...ALBERTA
CITY           SKY/WX    TMP DP  RH WIND       PRES   REMARKS
CALGARY        FAIR      57  21  25 W5        29.71F
LETHBRIDGE     PTCLDY    54  37  53 SW17      29.79F
MEDICINE HAT   CLOUDY    50  39  66 S7        29.76F
EDMONTON       MOCLDY    43  37  79 SE13      29.58F
WATERTON GATE  N/A       57  34  42 SW13G20    N/A
CARDSTON       N/A       52  37  57 SW3        N/A
MILK RIVER     N/A       61  39  44 SW18G25    N/A
$$

REGIONAL REPORTS...SASKATCHEWAN
CITY           SKY/WX    TMP DP  RH WIND       PRES   REMARKS
SWIFT CURRENT  MOCLDY    43  39  86 SE13G18   29.82S
REGINA         PTCLDY    34  32  92 SE9       29.91F WCI  27
VAL MARIE      N/A       41  34  76 NE1        N/A
ASSINIBOIA     N/A       39  37  93 SE7        N/A   WCI  34
CORONACH       N/A       41  37  86 E6         N/A

$$




USA.gov is the U.S. government's official web portal to all federal, state and local government web resources and services.